Location: ?????????
(54.7630°N, 39.4991°E)
Time: 17:56:52
(UTC+00:00)

USA 245 - Pass Details

Date: 14 April 2026
Orbit: 264 x 994 km, 97.9° (Epoch: 15 October)

Event Time Altitude Azimuth Distance (km) Brightness Sun altitude
Exits shadow 18:28:00 24° 167° (SSE) 1,256 4.7 -16.0°
Maximum altitude 18:30:32 85° 255° (WSW) 672 3.7 -16.3°
Drops below altitude 10° 18:35:38 10° 344° (NNW) 2,303 7.4 -16.8°
Sets 18:38:10 0° 346° (NNW) 3,327 8.4 -17.0°
